Stations météo

réclame
Mon MeteoGroup
Lakenheath/RAF, Grande-Bretagne (3583): Température de l'air & dewpoint: 22.01.2020 21:00:00 - 28.01.2020 21:00:00 (GMT)Lakenheath/RAF, Grande-Bretagne (3583): Vitesse du vent & gusts: 22.01.2020 21:00:00 - 28.01.2020 21:00:00 (GMT)Lakenheath/RAF, Grande-Bretagne (3583): Direction du vent: 22.01.2020 21:00:00 - 28.01.2020 21:00:00 (GMT)Lakenheath/RAF, Grande-Bretagne (3583): reduced air pressure: 22.01.2020 21:00:00 - 28.01.2020 21:00:00 (GMT)Lakenheath/RAF, Grande-Bretagne (3583): visibility: 22.01.2020 21:00:00 - 28.01.2020 21:00:00 (GMT)Lakenheath/RAF, Grande-Bretagne (3583): Quantités de précipitations: 22.01.2020 21:00:00 - 28.01.2020 21:00:00 (GMT)
Date & Time tt [°C] td [°C] ff [km/h] ff [knt] fx [km/h] fx [knt] dd ppp [hPa] vv [km] rr [mm]
28.01.2020 21:00:00 - - - - - - - - - -
28.01.2020 20:00:00 3,8 0,8 24 13 - - WSW 998,0 10 -
28.01.2020 19:00:00 3,4 0,6 28 15 - - WSW 996,6 10 -
28.01.2020 18:00:00 3,8 0,5 21 11 - - SW 996,3 10 0,0
28.01.2020 17:00:00 4,6 0,6 24 13 - - WSW 995,3 10 -
28.01.2020 16:00:00 6,1 0,8 26 14 - - SW 994,9 10 -
28.01.2020 15:00:00 7,1 0,5 26 14 50 27 W 994,6 10 0,0
28.01.2020 14:00:00 6,9 1,0 35 19 - - WSW 994,6 10 0,0
28.01.2020 13:00:00 5,0 0,6 34 18 - - WSW 994,3 10 -
28.01.2020 12:00:00 4,3 0,3 29 16 - - WSW 993,9 10 -
28.01.2020 11:00:00 4,5 0,3 31 17 - - WSW 993,6 10 -
28.01.2020 10:00:00 3,5 0,4 29 16 - - WSW 993,3 10 -
28.01.2020 09:00:00 2,6 0,2 24 13 - - WSW 991,6 10 -
28.01.2020 08:00:00 2,5 0,1 18 10 - - WSW 990,9 10 -
28.01.2020 07:00:00 3,0 1,4 26 14 - - WSW 989,9 10 -
28.01.2020 06:00:00 3,5 1,7 29 16 - - WSW 988,8 10 -
28.01.2020 05:00:00 4,3 2,2 24 13 - - WSW 987,8 10 -
28.01.2020 04:00:00 4,9 2,4 26 14 - - WSW 987,1 10 0,0
28.01.2020 03:00:00 5,3 3,9 22 12 - - SW 987,1 10 0,0
28.01.2020 02:00:00 4,8 3,8 11 6 - - SSW 987,8 10 -
28.01.2020 01:00:00 4,8 3,8 16 9 - - SSW 988,5 10 -
28.01.2020 00:00:00 4,4 4,0 16 9 - - SSW 989,5 10 -
27.01.2020 23:00:00 4,5 3,9 11 6 - - S 990,2 10 -
27.01.2020 22:00:00 5,1 4,2 18 10 - - SW 990,9 10 -
27.01.2020 21:00:00 5,3 4,4 16 9 - - SSW 991,6 10 -
27.01.2020 20:00:00 4,9 3,9 13 7 - - SSW 992,2 10 -
27.01.2020 19:00:00 5,1 4,4 5 3 - - S 992,9 10 0,3
27.01.2020 18:00:00 5,7 4,7 11 6 - - S 993,9 10 1,5
27.01.2020 17:00:00 6,7 5,5 11 6 - - S 994,6 10 2,3
27.01.2020 16:00:00 7,0 5,1 0 0 - - N 995,6 10 0,0
27.01.2020 15:00:00 8,0 4,8 8 4 - - S 997,0 10 0,3
27.01.2020 14:00:00 8,5 4,3 9 5 - - SSW 998,3 10 -
27.01.2020 13:00:00 8,8 4,6 16 9 - - SW 999,3 10 -
27.01.2020 12:00:00 8,9 5,3 24 13 - - SW 1000,0 10 -
27.01.2020 11:00:00 8,4 5,9 22 12 - - SW 1000,7 10 0,0
27.01.2020 10:00:00 6,5 5,6 11 6 - - S 1001,0 10 0,0
27.01.2020 09:00:00 5,8 5,1 9 5 - - SSW 1001,4 10 0,8
27.01.2020 08:00:00 7,0 4,1 31 17 - - WNW 1002,0 10 0,0
27.01.2020 07:00:00 7,5 5,5 16 9 - - S 1001,7 10 -
27.01.2020 06:00:00 7,3 5,3 16 9 - - SSW 1002,0 10 -
27.01.2020 05:00:00 7,0 5,6 16 9 - - SSW 1002,0 10 -
27.01.2020 04:00:00 7,2 5,7 16 9 - - SSW 1002,7 10 -
27.01.2020 03:00:00 7,3 6,1 15 8 - - SSW 1003,4 10 -
27.01.2020 02:00:00 6,9 5,8 16 9 - - SSW 1003,7 10 -
27.01.2020 01:00:00 7,3 5,9 18 10 - - SW 1003,7 10 -
27.01.2020 00:00:00 6,8 6,4 15 8 - - SW 1004,1 10 -
26.01.2020 23:00:00 6,7 6,4 15 8 - - SW 1004,4 10 -
26.01.2020 22:00:00 8,0 7,1 24 13 - - SW 1004,1 10 -
26.01.2020 21:00:00 9,0 8,1 22 12 - - SW 1004,1 10 -
26.01.2020 20:00:00 8,8 8,3 21 11 - - SSW 1003,7 10 0,0
26.01.2020 19:00:00 9,0 7,8 24 13 - - S 1004,1 10 -
26.01.2020 18:00:00 8,9 8,0 18 10 - - S 1004,8 10 0,3
26.01.2020 17:00:00 8,7 7,6 21 11 - - S 1005,1 10 0,3
26.01.2020 16:00:00 9,4 6,3 18 10 - - S 1005,8 10 0,0
26.01.2020 15:00:00 9,9 6,1 18 10 - - S 1006,8 10 -
26.01.2020 14:00:00 9,9 6,1 21 11 - - S 1007,1 10 -
26.01.2020 13:00:00 9,9 6,6 22 12 - - S 1007,8 10 -
26.01.2020 12:00:00 9,5 6,8 26 14 - - S 1008,5 10 -
26.01.2020 11:00:00 8,4 6,4 22 12 - - S 1009,8 10 -
26.01.2020 10:00:00 7,8 5,8 24 13 - - S 1010,2 10 -
26.01.2020 09:00:00 6,9 5,7 18 10 - - S 1010,5 10 -
26.01.2020 08:00:00 6,6 5,2 16 9 - - S 1010,9 10 -
26.01.2020 07:00:00 6,6 6,3 13 7 - - S 1010,9 10 -
26.01.2020 06:00:00 5,9 5,9 9 5 - - S 1010,9 10 -
26.01.2020 05:00:00 6,4 6,4 13 7 - - S 1010,9 10 -
26.01.2020 04:00:00 6,8 6,5 15 8 - - S 1011,5 10 -
26.01.2020 03:00:00 6,5 6,4 16 9 - - SSE 1012,2 10 -
26.01.2020 02:00:00 5,8 5,8 8 4 - - SE 1012,9 10 -
26.01.2020 01:00:00 5,3 5,3 11 6 - - S 1013,9 10 -
26.01.2020 00:00:00 4,9 4,9 16 9 - - SSE 1014,2 10 -
25.01.2020 23:00:00 4,5 4,5 13 7 - - S 1014,6 6 -
25.01.2020 22:00:00 4,8 4,8 13 7 - - S 1015,3 5 -
25.01.2020 21:00:00 5,1 4,7 11 6 - - SSE 1015,6 10 -
25.01.2020 20:00:00 5,2 4,9 15 8 - - S 1015,9 10 -
25.01.2020 19:00:00 5,2 4,6 11 6 - - S 1016,6 10 -
25.01.2020 18:00:00 5,6 5,2 11 6 - - SSE 1016,6 10 -
25.01.2020 17:00:00 5,9 5,2 11 6 - - S 1016,6 10 -
25.01.2020 16:00:00 6,2 5,2 11 6 - - SSE 1016,6 10 -
25.01.2020 15:00:00 6,2 5,5 11 6 - - S 1017,0 9 -
25.01.2020 14:00:00 6,4 4,2 11 6 - - SSW 1017,6 10 -
25.01.2020 13:00:00 6,6 3,7 15 8 - - SW 1018,3 10 -
25.01.2020 12:00:00 6,4 3,4 16 9 - - WSW 1018,6 10 -
25.01.2020 11:00:00 6,4 3,4 16 9 - - SW 1019,3 10 -
25.01.2020 10:00:00 6,1 3,1 15 8 - - SSW 1019,3 10 -
25.01.2020 09:00:00 6,0 3,7 11 6 - - SSW 1019,3 10 -
25.01.2020 08:00:00 5,9 4,9 9 5 - - SSW 1019,0 10 -
25.01.2020 07:00:00 6,0 5,3 11 6 - - SSW 1018,6 10 -
25.01.2020 06:00:00 6,2 4,0 13 7 - - SW 1018,6 10 -
25.01.2020 05:00:00 6,0 4,8 9 5 - - WSW 1018,6 10 -
25.01.2020 04:00:00 6,1 5,2 11 6 - - WSW 1019,0 10 -
25.01.2020 03:00:00 6,2 5,6 9 5 - - SW 1019,3 10 -
25.01.2020 02:00:00 6,2 6,2 5 3 - - SSW 1019,7 10 -
25.01.2020 01:00:00 6,2 6,2 9 5 - - SSW 1020,0 10 -
25.01.2020 00:00:00 6,2 6,2 5 3 - - S 1020,3 10 -
24.01.2020 23:00:00 6,2 6,2 5 3 - - S 1020,3 10 -
24.01.2020 22:00:00 6,3 6,3 5 3 - - S 1020,7 10 -
24.01.2020 21:00:00 6,6 6,6 5 3 - - S 1021,0 10 -
24.01.2020 20:00:00 6,6 6,6 8 4 - - SSW 1021,0 10 -
24.01.2020 19:00:00 6,5 6,5 0 0 - - N 1021,0 10 -
24.01.2020 18:00:00 6,7 6,7 8 4 - - SW 1021,0 10 -
24.01.2020 17:00:00 6,8 6,8 9 5 - - SSW 1020,7 10 -
24.01.2020 16:00:00 7,0 7,0 11 6 - - WSW 1020,7 10 -
24.01.2020 15:00:00 7,2 7,2 11 6 - - SW 1020,7 10 -
24.01.2020 14:00:00 7,2 7,2 11 6 - - SW 1021,0 10 -
24.01.2020 13:00:00 6,9 6,9 9 5 - - SW 1021,7 10 -
24.01.2020 12:00:00 6,7 6,7 8 4 - - SSW 1022,4 10 -
24.01.2020 11:00:00 6,5 6,5 5 3 - - SW 1023,0 10 -
24.01.2020 10:00:00 6,2 6,2 8 4 - - SSW 1023,0 10 -
24.01.2020 09:00:00 5,7 5,7 8 4 - - SW 1022,7 5 -
24.01.2020 08:00:00 5,6 5,6 9 5 - - SSW 1022,4 6 -
24.01.2020 07:00:00 6,0 6,0 8 4 - - SW 1022,7 8 -
24.01.2020 06:00:00 5,5 5,5 0 0 - - N 1023,0 8 -
24.01.2020 05:00:00 5,5 5,5 5 3 - - SW 1022,7 9 -
24.01.2020 04:00:00 5,8 5,8 9 5 - - WNW 1023,0 5 -
24.01.2020 03:00:00 5,7 5,7 9 5 - - WSW 1023,7 4,0 -
24.01.2020 02:00:00 5,8 5,8 9 5 - - W 1024,4 5 0,0
24.01.2020 01:00:00 5,8 5,8 5 3 - - SW 1025,1 9 0,0
24.01.2020 00:00:00 5,8 5,8 0 0 - - N 1025,8 8 0,0
23.01.2020 23:00:00 6,1 6,1 0 0 - - N 1026,1 5 -
23.01.2020 22:00:00 6,4 6,4 5 3 - - NW 1026,4 10 -
23.01.2020 21:00:00 6,7 6,7 0 0 - - N 1026,8 10 0,0
23.01.2020 20:00:00 6,4 6,4 0 0 - - N 1027,1 10 0,0
23.01.2020 19:00:00 6,3 6,3 0 0 - - N 1027,5 10 -
23.01.2020 18:00:00 6,8 6,8 0 0 - - N 1027,8 10 -
23.01.2020 17:00:00 7,1 7,0 0 0 - - N 1028,1 10 -
23.01.2020 16:00:00 7,1 7,1 5 3 - - WSW 1028,5 10 -
23.01.2020 15:00:00 7,5 7,5 5 3 - - WSW 1028,8 10 0,0
23.01.2020 14:00:00 7,5 7,5 8 4 - - WSW 1029,8 10 0,0
23.01.2020 13:00:00 7,5 7,5 5 3 - - W 1030,8 10 0,0
23.01.2020 12:00:00 7,3 7,3 0 0 - - N 1031,9 10 -
23.01.2020 11:00:00 7,0 7,0 0 0 - - N 1032,5 10 -
23.01.2020 10:00:00 6,6 6,6 0 0 - - N 1032,9 10 -
23.01.2020 09:00:00 6,2 6,2 0 0 - - N 1033,2 9 -
23.01.2020 08:00:00 5,9 5,9 0 0 - - N 1033,6 8 -
23.01.2020 07:00:00 5,6 5,6 0 0 - - N 1033,2 5 0,0
23.01.2020 06:00:00 5,2 5,2 5 3 - - N 1033,6 4,0 0,0
23.01.2020 05:00:00 5,3 5,3 0 0 - - N 1033,9 1,2 0,0
23.01.2020 04:00:00 5,1 5,1 0 0 - - N 1034,2 0,8 -
23.01.2020 03:00:00 5,0 5,0 0 0 - - N 1034,9 0,4 0,0
23.01.2020 02:00:00 5,0 5,0 0 0 - - N 1035,2 0,4 -
23.01.2020 01:00:00 5,7 5,7 0 0 - - N 1035,6 0,4 -
23.01.2020 00:00:00 6,1 6,1 0 0 - - N 1036,3 1,0 0,0
22.01.2020 23:00:00 - - - - - - - - - -
22.01.2020 22:00:00 - - - - - - - - - -
22.01.2020 21:00:00 6,0 6,0 0 0 - - N 1036,3 1,0 -

tt = Température de l'air
td = dewpoint
ff = Vitesse du vent
fx = gusts
dd = Direction du vent
ppp = reduced air pressure
vv = visibility
rr = Quantités de précipitations

stations d'obs. à proximité